Location: Briis
(48.6240°N, 2.1211°E)
Time: 03:52:11
(UTC+00:00)

Cosmos 540 Rocket - Pass Details

Date: 25 September 2020
Orbit: 740 x 753 km, 74.1° (Epoch: 22 October)

Event Time Altitude Azimuth Distance (km) Brightness Sun altitude
Exits shadow 03:38:55 17° 183° (S) 1,842 5.2 -20.7°
Maximum altitude 03:42:49 59° 108° (ESE) 870 3.9 -20.2°
Drops below altitude 10° 03:47:55 10° 29° (NNE) 2,288 6.7 -19.4°
Sets 03:50:19 0° 26° (NNE) 3,218 7.5 -19.0°
